THOR ABLESTAR DEB, 4005

Orbit data source: Space-Track

THOR ABLESTAR DEB, 4005 is space debris in LEO originally from a launch on Thu, 29 Jun 1961 UTC launched from the Air Force Eastern Test Range (AFETR). Debris objects in space refer to the collection of defunct objects orbiting the Earth. Examples of debris include non-operational satellites, rocket bodies, and fragments generated from explosions, collisions, or faulty payload assembly.

Loading next visibility...
Identifier
4005, 1961-015JK
Orbit
LEO
Country
Flag of USUS
Related business
Manufacturer
Unknown
Mission
Spacecraft
Bus & Motor
Unknown
Mass
Unknown
Launch date (UTC)
1961-06-29 (65 years ago)
Launch vehicle
Unknown
Launch site
Air Force Eastern Test Range (AFETR)
Object type
Payload
Rocket body
Debris
Shape & HBR
Unknown shape, 0.1 m
Radar Cross Section
Small (<0.1 m²)

Expand to show TLE details & history
Last TLE update: 1 day ago

TLE from 1 day ago
0 THOR ABLESTAR DEB
1 04005U 61015JK  26127.40529155  .00000376  00000-0  43025-3 0  9994
2 04005  66.7472 120.8350 0097620 311.8667 198.8685 13.78407076882172
Epoch: 2026-05-07T09:43Z
TLE epoch observation values (Epoch: 2026-05-07T09:43:37.189Z)
Latitude
27.06069°
Longitude
-82.93591°
Altitude
1,039.954 km
Speed
7.301 km/s
True Right ascension
19h 12m 53s
True Declination
26° 55' 37"
Sunlit
Object was in daylight at epoch
Visualization orbit readout
Latitude
Unknown
Longitude
Unknown
Altitude
Unknown
Speed
Unknown
Apparent Right ascension
Unknown
Apparent Declination
Unknown
Sunlit
N/A
Visualization observer readout
Local Sidereal Time
21:58:31
Azimuth
Unknown
Elevation
Unknown
Doppler factor
Unknown
Orbital elements
Apogee altitude
1,039.663 km
Perigee altitude
896.238 km
Semi-major axis
7,346.088 km
Eccentricity
0.00976
Inclination
66.7472°
RAAN
120.835°
Arg. of periapsis
311.8667°
True anomaly
198.51087°
Mean anomaly
198.8685°
Eccentric anomaly
198.68927°
Mean motion
3.44714 °/min
Orbital period
104.43 mins
BSTAR
0.00043025
Loading maneuver chart data...
Computing Atmospheric mass density...
Loading historical data...
Loading historical data...
Loading historical data...
Loading historical data...
Loading historical data...
Loading historical data...
Loading historical data...

Documentation

Showing up to 5 results
|